TYA2212 UMKK-ULMM

Flight info

Callsign TYA2212
Flight time 2h 39m
Altitude 36000
Route PELUG3N PELUG DCT OTVOV DCT KEDUX DCT PIVAX/N0467F350 DCT NEKET DCT PIRUX DCT PISIM DCT PIDIN DCT ARANS/K0878F350 DCT PISIS DCT AKARU DCT ROGOP T457 LULOR/K0880F360 T693 ASGOR ASGOR2L
Aircraft B738/M-SDE2E3FGHIRWXY/LB1

Departure

Time 2026-04-26 16:35
Airport Khrabrovo Airport (UMKK)

Arrival

Time 2026-04-26 19:14
Airport Emperor Nicholas II Murmansk Airport (ULMM)
Time Latitude Longitude Altitude Speed Heading
2026-04-26 16:06 54.88403 20.58155 26 ft 0 kts 336°
2026-04-26 16:26 54.88410 20.58149 29 ft 4 kts 336°
2026-04-26 16:26 54.88458 20.58198 29 ft 8 kts 65°
2026-04-26 16:26 54.88482 20.58290 30 ft 8 kts 66°
2026-04-26 16:27 54.88505 20.58378 29 ft 8 kts 65°
2026-04-26 16:27 54.88527 20.58464 31 ft 8 kts 65°
2026-04-26 16:27 54.88549 20.58547 27 ft 7 kts 66°
2026-04-26 16:27 54.88570 20.58628 27 ft 7 kts 66°
2026-04-26 16:28 54.88590 20.58705 27 ft 7 kts 66°
2026-04-26 16:28 54.88621 20.58761 29 ft 7 kts
2026-04-26 16:28 54.88665 20.58760 28 ft 7 kts 30°
2026-04-26 16:28 54.88690 20.58828 27 ft 7 kts 67°
2026-04-26 16:29 54.88707 20.58900 25 ft 6 kts 67°
2026-04-26 16:29 54.88734 20.58961 29 ft 6 kts 37°
2026-04-26 16:29 54.88773 20.58996 27 ft 6 kts 27°
2026-04-26 16:29 54.88791 20.59012 25 ft 0 kts 26°
2026-04-26 16:31 54.88815 20.59032 28 ft 11 kts 26°
2026-04-26 16:31 54.88906 20.59111 26 ft 16 kts 26°
2026-04-26 16:31 54.88989 20.59227 27 ft 15 kts 49°
2026-04-26 16:31 54.89041 20.59380 27 ft 14 kts 66°
2026-04-26 16:32 54.89084 20.59547 27 ft 17 kts 65°
2026-04-26 16:32 54.89120 20.59685 21 ft 21 kts 66°
2026-04-26 16:32 54.89199 20.59991 19 ft 21 kts 65°
2026-04-26 16:32 54.89257 20.60215 21 ft 20 kts 66°
2026-04-26 16:33 54.89314 20.60433 22 ft 19 kts 66°
2026-04-26 16:33 54.89368 20.60643 23 ft 19 kts 66°
2026-04-26 16:33 54.89421 20.60846 23 ft 18 kts 65°
2026-04-26 16:33 54.89451 20.61005 21 ft 5 kts 59°
2026-04-26 16:34 54.89460 20.60990 19 ft 3 kts 253°
2026-04-26 16:34 54.89441 20.60921 21 ft 22 kts 245°
2026-04-26 16:34 54.89265 20.60242 21 ft 100 kts 246°
2026-04-26 16:34 54.88892 20.58780 27 ft 163 kts 250°
2026-04-26 16:35 54.88453 20.57004 813 ft 160 kts 251°
2026-04-26 16:35 54.88007 20.55115 1430 ft 177 kts 258°
2026-04-26 16:35 54.88093 20.52994 1897 ft 189 kts 301°
2026-04-26 16:35 54.89167 20.51506 2058 ft 216 kts 337°
2026-04-26 16:36 54.90637 20.50472 2363 ft 238 kts 335°
2026-04-26 16:36 54.92121 20.49345 3526 ft 226 kts 335°
2026-04-26 16:36 54.93548 20.48265 4555 ft 224 kts 335°
2026-04-26 16:36 54.95001 20.47227 5388 ft 227 kts 337°
2026-04-26 16:37 54.96473 20.46216 6289 ft 227 kts 338°
2026-04-26 16:37 54.97925 20.45224 7133 ft 229 kts 338°
2026-04-26 16:37 54.99420 20.44201 7930 ft 232 kts 338°
2026-04-26 16:37 55.00431 20.43507 8445 ft 234 kts 338°
2026-04-26 16:38 55.02454 20.42122 9496 ft 237 kts 338°
2026-04-26 16:38 55.03992 20.41069 10263 ft 239 kts 338°
2026-04-26 16:38 55.05570 20.39981 10784 ft 253 kts 339°
2026-04-26 16:38 55.07285 20.38798 10970 ft 276 kts 339°
2026-04-26 16:39 55.09122 20.37527 11392 ft 289 kts 338°
2026-04-26 16:39 55.11015 20.36214 12089 ft 293 kts 339°
2026-04-26 16:39 55.12912 20.34897 12896 ft 293 kts 338°
2026-04-26 16:39 55.14798 20.33586 13721 ft 292 kts 338°
2026-04-26 16:40 55.16660 20.32290 14496 ft 291 kts 338°
2026-04-26 16:40 55.18540 20.30980 15285 ft 291 kts 338°
2026-04-26 16:40 55.20427 20.29666 15979 ft 292 kts 338°
2026-04-26 16:40 55.22327 20.28340 16641 ft 295 kts 338°
2026-04-26 16:41 55.24234 20.27008 17328 ft 295 kts 338°
2026-04-26 16:41 55.26138 20.25674 18051 ft 294 kts 338°
2026-04-26 16:41 55.28049 20.24336 18693 ft 296 kts 338°
2026-04-26 16:41 55.29974 20.22986 19263 ft 299 kts 338°
2026-04-26 16:42 55.31918 20.21618 19790 ft 303 kts 338°
2026-04-26 16:42 55.33855 20.20258 20349 ft 305 kts 337°
2026-04-26 16:42 55.35859 20.18850 20893 ft 308 kts 337°
2026-04-26 16:42 55.37829 20.17463 21420 ft 310 kts 337°
2026-04-26 16:43 55.39841 20.16047 21926 ft 313 kts 337°
2026-04-26 16:43 55.41871 20.14616 22419 ft 315 kts 337°
2026-04-26 16:43 55.43919 20.13170 22882 ft 318 kts 336°
2026-04-26 16:43 55.45982 20.11711 23366 ft 320 kts 336°
2026-04-26 16:44 55.48052 20.10245 23792 ft 322 kts 336°
2026-04-26 16:44 55.50145 20.08761 24201 ft 325 kts 336°
2026-04-26 16:44 55.51541 20.07771 24466 ft 327 kts 336°
2026-04-26 16:44 55.53664 20.06264 24876 ft 330 kts 336°
2026-04-26 16:45 55.55799 20.04746 25269 ft 332 kts 336°
2026-04-26 16:45 55.57951 20.03216 25666 ft 334 kts 336°
2026-04-26 16:45 55.60825 20.01167 26157 ft 338 kts 336°
2026-04-26 16:45 55.62913 19.99677 26505 ft 340 kts 336°
2026-04-26 16:46 55.64405 19.98611 26730 ft 341 kts 336°
2026-04-26 16:46 55.66590 19.97049 27066 ft 344 kts 336°
2026-04-26 16:46 55.68814 19.95458 27398 ft 346 kts 336°
2026-04-26 16:46 55.71055 19.93851 27751 ft 347 kts 336°
2026-04-26 16:47 55.73302 19.92239 28073 ft 349 kts 337°
2026-04-26 16:47 55.75561 19.90615 28377 ft 351 kts 337°
2026-04-26 16:47 55.77833 19.88981 28668 ft 353 kts 337°
2026-04-26 16:47 55.80118 19.87335 28975 ft 355 kts 337°
2026-04-26 16:48 55.82419 19.85676 29255 ft 357 kts 337°
2026-04-26 16:48 55.84698 19.84029 29523 ft 358 kts 337°
2026-04-26 16:48 55.86980 19.82378 29776 ft 360 kts 337°
2026-04-26 16:48 55.89308 19.80692 30049 ft 362 kts 337°
2026-04-26 16:49 55.91637 19.79004 30401 ft 360 kts 337°
2026-04-26 16:49 55.93959 19.77317 30749 ft 360 kts 337°
2026-04-26 16:49 55.96281 19.75629 31020 ft 361 kts 337°
2026-04-26 16:49 55.98609 19.73934 31305 ft 361 kts 337°
2026-04-26 16:50 56.00922 19.72249 31601 ft 361 kts 337°
2026-04-26 16:50 56.03243 19.70556 31905 ft 360 kts 336°
2026-04-26 16:50 56.05578 19.68849 32157 ft 361 kts 336°
2026-04-26 16:50 56.07905 19.67148 32388 ft 362 kts 336°
2026-04-26 16:51 56.10236 19.65441 32676 ft 361 kts 336°
2026-04-26 16:51 56.12531 19.63757 32977 ft 360 kts 336°
2026-04-26 16:51 56.14853 19.62051 33216 ft 361 kts 336°
2026-04-26 16:51 56.17187 19.60355 33447 ft 362 kts 339°
2026-04-26 16:52 56.19652 19.59279 33662 ft 366 kts 348°
2026-04-26 16:52 56.21336 19.58957 33807 ft 369 kts 351°
2026-04-26 16:52 56.24805 19.58918 34097 ft 376 kts 359°
2026-04-26 16:52 56.27400 19.59759 34338 ft 381 kts
2026-04-26 16:53 56.29961 19.60849 34494 ft 384 kts
2026-04-26 16:53 56.32566 19.62004 34632 ft 386 kts
2026-04-26 16:53 56.35178 19.63171 34831 ft 387 kts
2026-04-26 16:53 56.37791 19.64331 35022 ft 388 kts
2026-04-26 16:54 56.40421 19.65488 35124 ft 391 kts
2026-04-26 16:54 56.43077 19.66646 35133 ft 395 kts
2026-04-26 16:54 56.48432 19.68980 35148 ft 398 kts
2026-04-26 16:55 56.53870 19.71345 35149 ft 405 kts
2026-04-26 16:55 56.59334 19.73831 35133 ft 408 kts
2026-04-26 16:56 56.67544 19.78337 35121 ft 411 kts 10°
2026-04-26 16:57 56.73016 19.81387 35120 ft 411 kts 10°
2026-04-26 16:57 56.81206 19.85891 35120 ft 409 kts
2026-04-26 16:58 56.85737 19.88376 35120 ft 409 kts
2026-04-26 16:59 56.94789 19.93359 35118 ft 408 kts
2026-04-26 17:00 57.05647 19.99365 35123 ft 408 kts 10°
2026-04-26 17:00 57.13807 20.03910 35112 ft 408 kts 10°
2026-04-26 17:01 57.19204 20.06926 35108 ft 408 kts 10°
2026-04-26 17:01 57.24639 20.09968 35113 ft 408 kts 10°
2026-04-26 17:02 57.30078 20.13025 35111 ft 408 kts 10°
2026-04-26 17:02 57.35520 20.16096 35114 ft 408 kts 10°
2026-04-26 17:03 57.40953 20.19166 35110 ft 409 kts 10°
2026-04-26 17:03 57.46401 20.22256 35112 ft 409 kts 10°
2026-04-26 17:04 57.51809 20.25333 35110 ft 409 kts 11°
2026-04-26 17:04 57.57253 20.28442 35089 ft 409 kts 11°
2026-04-26 17:05 57.62695 20.31560 35085 ft 409 kts 11°
2026-04-26 17:05 57.68133 20.34684 35082 ft 408 kts 11°
2026-04-26 17:06 57.73521 20.37791 35076 ft 408 kts 11°
2026-04-26 17:06 57.78963 20.40936 35074 ft 408 kts 11°
2026-04-26 17:07 57.84394 20.44084 35077 ft 409 kts 11°
2026-04-26 17:07 57.89831 20.47248 35069 ft 409 kts 11°
2026-04-26 17:08 57.95274 20.50424 35064 ft 409 kts 11°
2026-04-26 17:08 58.00659 20.53578 35063 ft 409 kts 11°
2026-04-26 17:09 58.05188 20.56235 35062 ft 410 kts 11°
2026-04-26 17:09 58.11562 20.59989 35061 ft 410 kts 11°
2026-04-26 17:10 58.17014 20.63212 35056 ft 411 kts 11°
2026-04-26 17:10 58.22480 20.66453 35055 ft 412 kts 11°
2026-04-26 17:11 58.27948 20.69706 35057 ft 412 kts 11°
2026-04-26 17:11 58.33389 20.72953 35056 ft 412 kts 11°
2026-04-26 17:12 58.41596 20.77869 35060 ft 412 kts 11°
2026-04-26 17:13 58.49808 20.82814 35045 ft 413 kts 11°
2026-04-26 17:14 58.58061 20.87814 35044 ft 414 kts 12°
2026-04-26 17:14 58.66278 20.92812 35037 ft 415 kts 12°
2026-04-26 17:15 58.74536 20.97857 35032 ft 415 kts 12°
2026-04-26 17:16 58.79924 21.01165 35027 ft 416 kts 12°
2026-04-26 17:16 58.85440 21.04561 35026 ft 416 kts 12°
2026-04-26 17:17 58.90951 21.07966 35022 ft 416 kts 12°
2026-04-26 17:17 58.96478 21.11392 35007 ft 417 kts 12°
2026-04-26 17:18 59.01943 21.15127 34980 ft 425 kts 22°
2026-04-26 17:18 59.04387 21.18484 35020 ft 436 kts 34°
2026-04-26 17:18 59.06507 21.22795 35008 ft 448 kts 45°
2026-04-26 17:18 59.08158 21.28028 35020 ft 459 kts 54°
2026-04-26 17:19 59.11004 21.39192 35013 ft 462 kts 56°
2026-04-26 17:19 59.13805 21.50469 35011 ft 463 kts 56°
2026-04-26 17:20 59.15688 21.57934 34985 ft 463 kts 56°
2026-04-26 17:20 59.19506 21.72915 34979 ft 464 kts 56°
2026-04-26 17:21 59.22381 21.84205 34980 ft 464 kts 56°
2026-04-26 17:21 59.25241 21.95505 34981 ft 464 kts 56°
2026-04-26 17:22 59.28033 22.06591 34969 ft 464 kts 57°
2026-04-26 17:22 59.30881 22.17960 34975 ft 465 kts 57°
2026-04-26 17:23 59.33719 22.29346 34966 ft 466 kts 57°
2026-04-26 17:23 59.36533 22.40702 34961 ft 466 kts 57°
2026-04-26 17:24 59.39360 22.52157 34960 ft 466 kts 58°
2026-04-26 17:24 59.42175 22.63637 34963 ft 466 kts 58°
2026-04-26 17:25 59.44981 22.75137 34959 ft 466 kts 58°
2026-04-26 17:25 59.47762 22.86593 34960 ft 466 kts 58°
2026-04-26 17:26 59.50550 22.98144 34941 ft 467 kts 58°
2026-04-26 17:26 59.53274 23.09477 34937 ft 467 kts 58°
2026-04-26 17:27 59.55888 23.21265 34923 ft 473 kts 65°
2026-04-26 17:27 59.57872 23.33678 34924 ft 475 kts 68°
2026-04-26 17:28 59.59752 23.46097 34912 ft 475 kts 68°
2026-04-26 17:28 59.61688 23.58579 34905 ft 475 kts 67°
2026-04-26 17:29 59.63232 23.66726 34900 ft 470 kts 61°
2026-04-26 17:29 59.66835 23.82388 34899 ft 469 kts 60°
2026-04-26 17:30 59.69594 23.94080 34889 ft 469 kts 60°
2026-04-26 17:30 59.71837 24.03546 34888 ft 469 kts 60°
2026-04-26 17:31 59.75070 24.17144 34886 ft 469 kts 59°
2026-04-26 17:31 59.77859 24.28866 34883 ft 469 kts 60°
2026-04-26 17:32 59.80182 24.38618 34863 ft 470 kts 60°
2026-04-26 17:32 59.82974 24.50354 34859 ft 469 kts 60°
2026-04-26 17:33 59.85766 24.62092 34857 ft 469 kts 60°
2026-04-26 17:34 59.89959 24.79672 34850 ft 468 kts 60°
2026-04-26 17:34 59.92744 24.91415 34847 ft 470 kts 63°
2026-04-26 17:34 59.93702 24.97692 34836 ft 478 kts 77°
2026-04-26 17:35 59.93945 25.03904 34839 ft 484 kts 87°
2026-04-26 17:35 59.93865 25.17355 34841 ft 485 kts 86°
2026-04-26 17:36 59.93921 25.30811 34832 ft 485 kts 85°
2026-04-26 17:36 59.94025 25.44263 34833 ft 485 kts 86°
2026-04-26 17:37 59.94118 25.57741 34833 ft 486 kts 86°
2026-04-26 17:37 59.94189 25.71215 34832 ft 485 kts 86°
2026-04-26 17:38 59.94270 25.91408 34814 ft 481 kts 87°
2026-04-26 17:38 59.94438 26.04224 34813 ft 468 kts 79°
2026-04-26 17:39 59.95791 26.16768 34823 ft 464 kts 73°
2026-04-26 17:39 59.97301 26.29268 34822 ft 463 kts 73°
2026-04-26 17:40 59.98515 26.39699 34812 ft 464 kts 74°
2026-04-26 17:40 60.00169 26.54365 34808 ft 464 kts 75°
2026-04-26 17:41 60.01570 26.66976 34805 ft 465 kts 75°
2026-04-26 17:41 60.02954 26.79538 34800 ft 466 kts 75°
2026-04-26 17:42 60.04340 26.92209 34791 ft 467 kts 75°
2026-04-26 17:42 60.05643 27.04673 34751 ft 469 kts 77°
2026-04-26 17:43 60.06769 27.17553 34752 ft 469 kts 78°
2026-04-26 17:43 60.07856 27.30464 34749 ft 469 kts 78°
2026-04-26 17:44 60.08954 27.43341 34748 ft 469 kts 78°
2026-04-26 17:44 60.10056 27.56235 34745 ft 469 kts 78°
2026-04-26 17:45 60.11146 27.69127 34739 ft 469 kts 78°
2026-04-26 17:45 60.12217 27.81948 34744 ft 469 kts 78°
2026-04-26 17:46 60.13283 27.94853 34739 ft 469 kts 79°
2026-04-26 17:46 60.14312 28.07488 34703 ft 469 kts 79°
2026-04-26 17:47 60.15183 28.18299 34707 ft 469 kts 79°
2026-04-26 17:47 60.16380 28.33355 34682 ft 470 kts 79°
2026-04-26 17:48 60.17399 28.46320 34672 ft 469 kts 79°
2026-04-26 17:48 60.18711 28.59119 34655 ft 465 kts 66°
2026-04-26 17:49 60.22038 28.70106 34661 ft 459 kts 46°
2026-04-26 17:49 60.26848 28.78393 34651 ft 454 kts 30°
2026-04-26 17:50 60.32301 28.84824 34655 ft 454 kts 28°
2026-04-26 17:50 60.37797 28.91156 34654 ft 454 kts 28°
2026-04-26 17:51 60.43233 28.97531 34660 ft 455 kts 29°
2026-04-26 17:51 60.48577 29.03899 34666 ft 456 kts 29°
2026-04-26 17:52 60.54040 29.10457 34668 ft 456 kts 29°
2026-04-26 17:52 60.59511 29.17052 34665 ft 457 kts 29°
2026-04-26 17:53 60.64995 29.23682 34664 ft 458 kts 29°
2026-04-26 17:54 60.73215 29.33677 34675 ft 459 kts 30°
2026-04-26 17:54 60.78699 29.40374 34676 ft 459 kts 30°
2026-04-26 17:55 60.84155 29.47068 34644 ft 460 kts 30°
2026-04-26 17:55 60.89649 29.53835 34645 ft 460 kts 30°
2026-04-26 17:56 60.95137 29.60623 34652 ft 460 kts 30°
2026-04-26 17:57 61.06083 29.74237 34654 ft 459 kts 30°
2026-04-26 17:57 61.11546 29.81076 34669 ft 458 kts 30°
2026-04-26 17:58 61.22423 29.94779 34674 ft 458 kts 30°
2026-04-26 17:59 61.30470 30.04985 34670 ft 458 kts 31°
2026-04-26 17:59 61.35909 30.11921 34678 ft 459 kts 31°
2026-04-26 18:00 61.41358 30.18898 34677 ft 459 kts 31°
2026-04-26 18:00 61.46817 30.25915 34676 ft 460 kts 31°
2026-04-26 18:01 61.52275 30.32962 34664 ft 461 kts 31°
2026-04-26 18:01 61.57700 30.39995 34641 ft 462 kts 31°
2026-04-26 18:02 61.61364 30.44761 34631 ft 463 kts 31°
2026-04-26 18:02 61.68640 30.54268 34638 ft 462 kts 31°
2026-04-26 18:03 61.74106 30.61445 34636 ft 462 kts 31°
2026-04-26 18:03 61.79569 30.68643 34637 ft 462 kts 31°
2026-04-26 18:04 61.85018 30.75859 34644 ft 462 kts 31°
2026-04-26 18:05 61.93183 30.86728 34645 ft 462 kts 31°
2026-04-26 18:05 61.98591 30.93965 34654 ft 461 kts 31°
2026-04-26 18:06 62.03888 31.01084 34669 ft 461 kts 32°
2026-04-26 18:06 62.09341 31.08440 34679 ft 461 kts 32°
2026-04-26 18:07 62.14717 31.15728 34690 ft 460 kts 32°
2026-04-26 18:07 62.20128 31.23098 34695 ft 461 kts 32°
2026-04-26 18:08 62.25538 31.30492 34694 ft 461 kts 32°
2026-04-26 18:08 62.30940 31.37906 34691 ft 460 kts 32°
2026-04-26 18:09 62.36342 31.45354 34695 ft 461 kts 32°
2026-04-26 18:09 62.41713 31.52789 34695 ft 462 kts 32°
2026-04-26 18:10 62.47123 31.60316 34686 ft 462 kts 32°
2026-04-26 18:10 62.52540 31.67885 34683 ft 463 kts 33°
2026-04-26 18:11 62.57950 31.75477 34685 ft 463 kts 33°
2026-04-26 18:11 62.63319 31.83045 34681 ft 463 kts 33°
2026-04-26 18:12 62.68724 31.90688 34683 ft 463 kts 33°
2026-04-26 18:12 62.74487 31.96804 34694 ft 462 kts 14°
2026-04-26 18:13 62.80843 31.98164 34702 ft 459 kts 357°
2026-04-26 18:13 62.87244 31.97625 34692 ft 460 kts 358°
2026-04-26 18:14 62.92564 31.97312 34689 ft 460 kts 358°
2026-04-26 18:14 62.98967 31.97014 34682 ft 460 kts 358°
2026-04-26 18:15 63.06408 31.96688 34682 ft 460 kts 358°
2026-04-26 18:15 63.11781 31.96446 34683 ft 460 kts 358°
2026-04-26 18:16 63.18147 31.96154 34685 ft 460 kts 358°
2026-04-26 18:16 63.27752 31.95711 34699 ft 460 kts 358°
2026-04-26 18:17 63.34165 31.95471 34691 ft 460 kts
2026-04-26 18:17 63.40567 31.95751 34693 ft 461 kts
2026-04-26 18:18 63.46976 31.96081 34693 ft 460 kts
2026-04-26 18:18 63.53385 31.96415 34696 ft 460 kts
2026-04-26 18:19 63.59798 31.96744 34702 ft 460 kts
2026-04-26 18:19 63.66171 31.97073 34703 ft 461 kts
2026-04-26 18:20 63.72588 31.97399 34703 ft 461 kts
2026-04-26 18:20 63.77914 31.97667 34705 ft 461 kts
2026-04-26 18:21 63.85377 31.98053 34708 ft 460 kts
2026-04-26 18:21 63.91793 31.98385 34712 ft 461 kts
2026-04-26 18:22 63.98208 31.98720 34711 ft 460 kts
2026-04-26 18:22 64.04615 31.99056 34721 ft 460 kts
2026-04-26 18:23 64.10980 31.99392 34723 ft 460 kts
2026-04-26 18:23 64.17378 31.99733 34724 ft 460 kts
2026-04-26 18:24 64.23661 32.00068 34734 ft 459 kts
2026-04-26 18:24 64.30057 32.00407 34727 ft 459 kts
2026-04-26 18:25 64.36448 32.00750 34736 ft 459 kts
2026-04-26 18:25 64.42794 32.01091 34738 ft 459 kts
2026-04-26 18:26 64.49192 32.01435 34741 ft 460 kts
2026-04-26 18:26 64.55601 32.01784 34744 ft 460 kts
2026-04-26 18:27 64.62004 32.02134 34749 ft 460 kts
2026-04-26 18:27 64.68416 32.02487 34751 ft 461 kts
2026-04-26 18:28 64.74829 32.02839 34757 ft 461 kts
2026-04-26 18:28 64.81243 32.03193 34755 ft 461 kts
2026-04-26 18:29 64.87662 32.03555 34760 ft 461 kts
2026-04-26 18:29 64.94038 32.03906 34769 ft 461 kts
2026-04-26 18:30 65.00465 32.04263 34768 ft 462 kts
2026-04-26 18:30 65.06899 32.04623 34772 ft 462 kts
2026-04-26 18:31 65.13333 32.04987 34775 ft 463 kts
2026-04-26 18:31 65.19768 32.05351 34777 ft 462 kts
2026-04-26 18:32 65.26164 32.05715 34774 ft 462 kts
2026-04-26 18:32 65.32616 32.06084 34787 ft 462 kts
2026-04-26 18:33 65.39007 32.06452 34786 ft 461 kts
2026-04-26 18:33 65.45443 32.06819 34790 ft 461 kts
2026-04-26 18:34 65.51877 32.07193 34784 ft 461 kts
2026-04-26 18:34 65.58260 32.07552 34790 ft 461 kts
2026-04-26 18:35 65.64689 32.07840 34795 ft 461 kts
2026-04-26 18:35 65.71107 32.08126 34790 ft 461 kts
2026-04-26 18:36 65.77525 32.08421 34798 ft 461 kts
2026-04-26 18:36 65.83944 32.08719 34798 ft 461 kts
2026-04-26 18:37 65.90364 32.09020 34796 ft 461 kts
2026-04-26 18:37 65.96741 32.09320 34794 ft 461 kts
2026-04-26 18:38 66.03150 32.09624 34802 ft 461 kts
2026-04-26 18:38 66.09564 32.09928 34807 ft 461 kts
2026-04-26 18:39 66.15981 32.10240 34807 ft 461 kts
2026-04-26 18:39 66.22400 32.10546 34801 ft 461 kts
2026-04-26 18:40 66.28783 32.10849 34806 ft 462 kts
2026-04-26 18:40 66.35210 32.11171 34806 ft 462 kts
2026-04-26 18:41 66.41624 32.12136 34797 ft 463 kts 11°
2026-04-26 18:41 66.47885 32.15911 34797 ft 463 kts 13°
2026-04-26 18:42 66.54067 32.19927 34776 ft 450 kts 13°
2026-04-26 18:42 66.57080 32.21844 34426 ft 443 kts 13°
2026-04-26 18:42 66.60046 32.23702 34082 ft 436 kts 13°
2026-04-26 18:43 66.62984 32.25528 33675 ft 433 kts 13°
2026-04-26 18:43 66.65906 32.27339 33274 ft 429 kts 12°
2026-04-26 18:43 66.68794 32.29131 32866 ft 426 kts 12°
2026-04-26 18:43 66.71659 32.30914 32458 ft 422 kts 12°
2026-04-26 18:44 66.74503 32.32690 32057 ft 419 kts 12°
2026-04-26 18:44 66.77327 32.34460 31654 ft 416 kts 12°
2026-04-26 18:44 66.80129 32.36220 31256 ft 413 kts 12°
2026-04-26 18:44 66.82911 32.37974 30861 ft 410 kts 12°
2026-04-26 18:45 66.85671 32.39714 30474 ft 407 kts 12°
2026-04-26 18:45 66.88373 32.41421 30083 ft 404 kts 12°
2026-04-26 18:45 66.91092 32.43143 29705 ft 401 kts 12°
2026-04-26 18:45 66.93787 32.44853 29330 ft 396 kts 12°
2026-04-26 18:46 66.96455 32.46548 28938 ft 393 kts 12°
2026-04-26 18:46 66.99097 32.48230 28548 ft 390 kts 12°
2026-04-26 18:46 67.01719 32.49901 28148 ft 387 kts 12°
2026-04-26 18:46 67.04322 32.51567 27764 ft 384 kts 12°
2026-04-26 18:47 67.06905 32.53222 27377 ft 381 kts 12°
2026-04-26 18:47 67.09464 32.54866 26989 ft 378 kts 12°
2026-04-26 18:47 67.11992 32.56614 26808 ft 372 kts 18°
2026-04-26 18:47 67.14407 32.58798 26796 ft 362 kts 16°
2026-04-26 18:48 67.16724 32.60783 26775 ft 350 kts 17°
2026-04-26 18:48 67.18853 32.63564 26768 ft 340 kts 37°
2026-04-26 18:48 67.20371 32.68067 26772 ft 330 kts 61°
2026-04-26 18:48 67.21060 32.73559 26775 ft 318 kts 85°
2026-04-26 18:49 67.20838 32.79080 26772 ft 306 kts 111°
2026-04-26 18:49 67.19758 32.83771 26803 ft 310 kts 137°
2026-04-26 18:49 67.17986 32.86972 26796 ft 316 kts 161°
2026-04-26 18:49 67.15838 32.88059 26795 ft 316 kts 186°
2026-04-26 18:50 67.13733 32.86826 26781 ft 307 kts 210°
2026-04-26 18:50 67.12072 32.83563 26775 ft 298 kts 234°
2026-04-26 18:50 67.11141 32.78927 26782 ft 292 kts 258°
2026-04-26 18:50 67.11092 32.73790 26781 ft 288 kts 284°
2026-04-26 18:51 67.11933 32.69132 26798 ft 294 kts 308°
2026-04-26 18:51 67.13533 32.65678 26809 ft 311 kts 332°
2026-04-26 18:51 67.15675 32.64045 26538 ft 338 kts 354°
2026-04-26 18:51 67.18118 32.64414 26159 ft 366 kts
2026-04-26 18:52 67.20673 32.65602 25732 ft 376 kts
2026-04-26 18:52 67.23236 32.67009 25300 ft 375 kts 10°
2026-04-26 18:52 67.25782 32.68422 24873 ft 373 kts
2026-04-26 18:52 67.28316 32.69781 24446 ft 372 kts
2026-04-26 18:53 67.30849 32.71089 24018 ft 370 kts
2026-04-26 18:53 67.33374 32.72360 23590 ft 369 kts
2026-04-26 18:53 67.35858 32.73598 23172 ft 367 kts
2026-04-26 18:53 67.38356 32.74838 22743 ft 364 kts
2026-04-26 18:54 67.40842 32.76073 22320 ft 362 kts
2026-04-26 18:54 67.43315 32.77307 21893 ft 360 kts
2026-04-26 18:54 67.45779 32.78395 21461 ft 356 kts
2026-04-26 18:54 67.48243 32.78571 21042 ft 352 kts 357°
2026-04-26 18:55 67.50655 32.78446 20622 ft 350 kts 356°
2026-04-26 18:55 67.53079 32.78279 20198 ft 347 kts 356°
2026-04-26 18:55 67.55496 32.78120 19771 ft 345 kts 356°
2026-04-26 18:55 67.57892 32.77979 19347 ft 343 kts 357°
2026-04-26 18:56 67.60274 32.77856 18922 ft 341 kts 357°
2026-04-26 18:56 67.62642 32.77746 18498 ft 339 kts 357°
2026-04-26 18:56 67.64990 32.77645 18076 ft 337 kts 357°
2026-04-26 18:56 67.67335 32.77549 17650 ft 335 kts 357°
2026-04-26 18:57 67.69661 32.77456 17220 ft 333 kts 357°
2026-04-26 18:57 67.70415 32.77425 17085 ft 333 kts 357°
2026-04-26 18:57 67.74244 32.77274 16378 ft 329 kts 357°
2026-04-26 18:57 67.76526 32.77181 15955 ft 327 kts 357°
2026-04-26 18:58 67.78802 32.77089 15530 ft 325 kts 357°
2026-04-26 18:58 67.81059 32.76999 15103 ft 323 kts 357°
2026-04-26 18:58 67.83302 32.76914 14676 ft 321 kts 357°
2026-04-26 18:58 67.84779 32.76857 14392 ft 320 kts 357°
2026-04-26 18:59 67.87001 32.76763 13968 ft 319 kts 357°
2026-04-26 18:59 67.89220 32.76666 13542 ft 317 kts 357°
2026-04-26 18:59 67.91412 32.76577 13212 ft 312 kts 357°
2026-04-26 18:59 67.93559 32.76493 12965 ft 305 kts 357°
2026-04-26 19:00 67.95659 32.76410 12703 ft 299 kts 356°
2026-04-26 19:00 67.97719 32.76329 12449 ft 293 kts 356°
2026-04-26 19:00 67.99742 32.76268 12195 ft 289 kts 357°
2026-04-26 19:00 68.01731 32.76245 11940 ft 283 kts 357°
2026-04-26 19:01 68.03664 32.76222 11686 ft 279 kts 357°
2026-04-26 19:01 68.05596 32.76197 11439 ft 276 kts 357°
2026-04-26 19:01 68.07506 32.76173 11185 ft 274 kts 357°
2026-04-26 19:01 68.09405 32.76147 10930 ft 272 kts 357°
2026-04-26 19:02 68.11291 32.76121 10686 ft 270 kts 357°
2026-04-26 19:02 68.13166 32.76098 10439 ft 269 kts 357°
2026-04-26 19:02 68.15041 32.76075 10185 ft 268 kts 357°
2026-04-26 19:02 68.16274 32.76059 10020 ft 268 kts 358°
2026-04-26 19:03 68.18741 32.76026 9692 ft 268 kts 358°
2026-04-26 19:03 68.20596 32.76001 9440 ft 264 kts 358°
2026-04-26 19:03 68.22426 32.75971 9184 ft 261 kts 358°
2026-04-26 19:03 68.24244 32.75947 8935 ft 261 kts 358°
2026-04-26 19:04 68.26055 32.75920 8726 ft 257 kts 358°
2026-04-26 19:04 68.27822 32.75950 8502 ft 253 kts
2026-04-26 19:04 68.29551 32.76823 8223 ft 251 kts 12°
2026-04-26 19:04 68.31231 32.78045 7774 ft 250 kts 13°
2026-04-26 19:05 68.34574 32.80544 7078 ft 250 kts 13°
2026-04-26 19:05 68.36238 32.81758 6872 ft 246 kts 12°
2026-04-26 19:05 68.37893 32.82941 6588 ft 246 kts 12°
2026-04-26 19:06 68.39551 32.84114 6321 ft 245 kts 12°
2026-04-26 19:06 68.41198 32.85273 6041 ft 244 kts 12°
2026-04-26 19:06 68.42833 32.86390 5763 ft 242 kts 11°
2026-04-26 19:06 68.44464 32.87524 5472 ft 243 kts 12°
2026-04-26 19:07 68.46100 32.88621 5225 ft 241 kts 11°
2026-04-26 19:07 68.47728 32.89751 4915 ft 243 kts 12°
2026-04-26 19:07 68.49374 32.90953 4490 ft 247 kts 13°
2026-04-26 19:07 68.51008 32.92124 4233 ft 241 kts 11°
2026-04-26 19:08 68.52612 32.93184 4103 ft 234 kts 12°
2026-04-26 19:08 68.54167 32.94297 3990 ft 227 kts 12°
2026-04-26 19:08 68.55667 32.95370 3879 ft 219 kts 12°
2026-04-26 19:08 68.57134 32.96409 3678 ft 216 kts 12°
2026-04-26 19:09 68.58583 32.97430 3468 ft 214 kts 11°
2026-04-26 19:09 68.60014 32.98433 3256 ft 210 kts 12°
2026-04-26 19:09 68.61407 32.99415 3038 ft 204 kts 12°
2026-04-26 19:09 68.62709 33.00336 2811 ft 199 kts 11°
2026-04-26 19:10 68.64047 33.00534 2565 ft 190 kts 339°
2026-04-26 19:10 68.65154 32.98850 2552 ft 184 kts 330°
2026-04-26 19:10 68.66245 32.97141 2534 ft 174 kts 327°
2026-04-26 19:10 68.67205 32.95462 2510 ft 154 kts 325°
2026-04-26 19:11 68.68063 32.93885 2414 ft 145 kts 325°
2026-04-26 19:11 68.68883 32.92370 2223 ft 140 kts 325°
2026-04-26 19:11 68.69677 32.90900 2047 ft 136 kts 325°
2026-04-26 19:11 68.70463 32.89443 1867 ft 137 kts 325°
2026-04-26 19:12 68.71261 32.87971 1690 ft 139 kts 324°
2026-04-26 19:12 68.72066 32.86485 1503 ft 139 kts 324°
2026-04-26 19:12 68.72868 32.84987 1332 ft 138 kts 324°
2026-04-26 19:12 68.73667 32.83502 1139 ft 139 kts 324°
2026-04-26 19:13 68.74476 32.82016 900 ft 139 kts 325°
2026-04-26 19:13 68.75265 32.80580 716 ft 137 kts 325°
2026-04-26 19:13 68.76052 32.79092 532 ft 136 kts 324°
2026-04-26 19:13 68.76836 32.77667 371 ft 136 kts 325°
2026-04-26 19:14 68.77615 32.76229 272 ft 126 kts 327°
2026-04-26 19:14 68.78145 32.75263 269 ft 62 kts 326°
2026-04-26 19:14 68.78284 32.75065 271 ft 13 kts 23°
2026-04-26 19:14 68.78328 32.75206 270 ft 17 kts 56°
2026-04-26 19:15 68.78339 32.75248 270 ft 0 kts 56°
2026-04-26 19:15 68.78345 32.75273 270 ft 6 kts 56°
2026-04-26 19:15 68.78389 32.75454 270 ft 13 kts 57°
2026-04-26 19:16 68.78442 32.75677 270 ft 13 kts 57°
2026-04-26 19:16 68.78501 32.75688 269 ft 3 kts 330°
2026-04-26 19:16 68.78509 32.75675 269 ft 0 kts 327°
2026-04-26 19:21 68.78498 32.75629 270 ft 0 kts 327°
2026-04-26 19:21 68.78510 32.75607 270 ft 0 kts 327°
2026-04-26 19:21 68.78522 32.75588 269 ft 0 kts 327°